TimeCST,TemperatureF,Dew PointF,Humidity,Sea Level PressureIn,VisibilityMPH,Wind Direction,Wind SpeedMPH,Gust SpeedMPH,PrecipitationIn,Events,Conditions,WindDirDegrees,DateUTC
12:15 AM,55.4,55.4,100,29.84,8.0,Calm,Calm,-,N/A,,Clear,0,2013-12-20 06:15:00
12:35 AM,57.2,57.2,100,29.83,9.0,Calm,Calm,-,N/A,,Clear,0,2013-12-20 06:35:00
12:55 AM,59.0,59.0,100,29.83,10.0,Calm,Calm,-,N/A,,Clear,0,2013-12-20 06:55:00
1:15 AM,59.0,59.0,100,29.83,10.0,Calm,Calm,-,N/A,,Clear,0,2013-12-20 07:15:00
1:35 AM,59.0,59.0,100,29.82,8.0,Calm,Calm,-,N/A,,Clear,0,2013-12-20 07:35:00
1:55 AM,59.0,59.0,100,29.82,3.0,Calm,Calm,-,N/A,,Scattered Clouds,0,2013-12-20 07:55:00
2:15 AM,59.0,59.0,100,29.82,6.0,Calm,Calm,-,N/A,,Mostly Cloudy,0,2013-12-20 08:15:00
2:35 AM,57.2,57.2,100,29.82,1.5,Calm,Calm,-,N/A,,Mostly Cloudy,0,2013-12-20 08:35:00
2:55 AM,55.4,55.4,100,29.82,2.5,Calm,Calm,-,N/A,,Scattered Clouds,0,2013-12-20 08:55:00
3:15 AM,53.6,53.6,100,29.82,0.8,Calm,Calm,-,N/A,,Mostly Cloudy,0,2013-12-20 09:15:00
3:35 AM,51.8,51.8,100,29.82,0.5,Calm,Calm,-,N/A,Fog,Fog,0,2013-12-20 09:35:00
3:55 AM,55.4,55.4,100,29.83,0.5,Calm,Calm,-,N/A,Fog,Fog,0,2013-12-20 09:55:00
4:15 AM,51.8,51.8,100,29.82,0.5,Calm,Calm,-,N/A,Fog,Fog,0,2013-12-20 10:15:00
4:35 AM,51.8,51.8,100,29.82,0.8,Calm,Calm,-,N/A,,Mist,0,2013-12-20 10:35:00
4:55 AM,51.8,51.8,100,29.82,0.2,Calm,Calm,-,N/A,Fog,Fog,0,2013-12-20 10:55:00
5:15 AM,55.4,55.4,100,29.83,0.5,SE,4.6,-,N/A,Fog,Fog,140,2013-12-20 11:15:00
5:35 AM,57.2,57.2,100,29.83,4.0,Calm,Calm,-,N/A,,Overcast,0,2013-12-20 11:35:00
5:55 AM,57.2,57.2,100,29.83,4.0,Calm,Calm,-,N/A,,Overcast,0,2013-12-20 11:55:00
6:15 AM,57.2,57.2,100,29.84,5.0,Calm,Calm,-,N/A,,Overcast,0,2013-12-20 12:15:00
6:35 AM,57.2,57.2,100,29.84,4.0,Calm,Calm,-,N/A,,Overcast,0,2013-12-20 12:35:00
6:55 AM,57.2,57.2,100,29.84,3.0,Calm,Calm,-,N/A,,Scattered Clouds,0,2013-12-20 12:55:00
7:15 AM,57.2,57.2,100,29.84,5.0,Calm,Calm,-,N/A,,Partly Cloudy,0,2013-12-20 13:15:00
7:35 AM,57.2,57.2,100,29.85,7.0,Calm,Calm,-,N/A,,Mostly Cloudy,0,2013-12-20 13:35:00
7:55 AM,59.0,59.0,100,29.84,8.0,Calm,Calm,-,N/A,,Overcast,0,2013-12-20 13:55:00
8:15 AM,60.8,60.8,100,29.85,9.0,Calm,Calm,-,N/A,,Overcast,0,2013-12-20 14:15:00
8:35 AM,60.8,60.8,100,29.85,8.0,Calm,Calm,-,N/A,,Overcast,0,2013-12-20 14:35:00
8:55 AM,62.6,62.6,100,29.86,9.0,Calm,Calm,-,N/A,,Overcast,0,2013-12-20 14:55:00
9:15 AM,62.6,62.6,100,29.87,10.0,Calm,Calm,-,N/A,,Mostly Cloudy,0,2013-12-20 15:15:00
9:35 AM,62.6,62.6,100,29.87,10.0,Calm,Calm,-,N/A,,Mostly Cloudy,0,2013-12-20 15:35:00
9:55 AM,64.4,64.4,100,29.88,10.0,SSE,3.5,-,N/A,,Partly Cloudy,160,2013-12-20 15:55:00
10:15 AM,66.2,62.6,88,29.88,10.0,SSE,4.6,-,N/A,,Partly Cloudy,160,2013-12-20 16:15:00
10:35 AM,66.2,62.6,88,29.88,10.0,Calm,Calm,-,N/A,,Scattered Clouds,0,2013-12-20 16:35:00
10:55 AM,66.2,62.6,88,29.87,10.0,South,4.6,-,N/A,,Scattered Clouds,170,2013-12-20 16:55:00
11:15 AM,68.0,62.6,83,29.87,10.0,South,6.9,-,N/A,,Scattered Clouds,190,2013-12-20 17:15:00
11:35 AM,68.0,60.8,78,29.87,10.0,SSW,5.8,-,N/A,,Mostly Cloudy,200,2013-12-20 17:35:00
11:55 AM,69.8,60.8,73,29.88,10.0,SSW,5.8,-,N/A,,Mostly Cloudy,210,2013-12-20 17:55:00
12:15 PM,69.8,60.8,73,29.86,10.0,South,6.9,-,N/A,,Mostly Cloudy,190,2013-12-20 18:15:00
12:35 PM,69.8,60.8,73,29.85,10.0,SW,5.8,-,N/A,,Scattered Clouds,230,2013-12-20 18:35:00
12:55 PM,69.8,60.8,73,29.83,10.0,South,4.6,-,N/A,,Mostly Cloudy,180,2013-12-20 18:55:00
1:15 PM,71.6,60.8,69,29.83,10.0,Calm,Calm,-,N/A,,Mostly Cloudy,0,2013-12-20 19:15:00
1:35 PM,71.6,60.8,69,29.81,10.0,Calm,Calm,-,N/A,,Mostly Cloudy,0,2013-12-20 19:35:00
1:55 PM,71.6,60.8,69,29.80,10.0,SSW,4.6,-,N/A,,Mostly Cloudy,200,2013-12-20 19:55:00
2:15 PM,69.8,60.8,73,29.79,10.0,Calm,Calm,-,N/A,,Scattered Clouds,0,2013-12-20 20:15:00
2:35 PM,71.6,60.8,69,29.77,10.0,Calm,Calm,-,N/A,,Mostly Cloudy,0,2013-12-20 20:35:00
2:55 PM,71.6,60.8,69,29.77,10.0,SE,5.8,-,N/A,,Scattered Clouds,140,2013-12-20 20:55:00
3:15 PM,71.6,60.8,69,29.77,10.0,SSE,4.6,-,N/A,,Clear,150,2013-12-20 21:15:00
3:35 PM,71.6,60.8,69,29.76,10.0,ESE,8.1,-,N/A,,Clear,120,2013-12-20 21:35:00
3:55 PM,69.8,60.8,73,29.76,10.0,ESE,6.9,-,N/A,,Clear,120,2013-12-20 21:55:00
4:15 PM,69.8,60.8,73,29.76,10.0,Calm,Calm,-,N/A,,Clear,0,2013-12-20 22:15:00
4:35 PM,69.8,60.8,73,29.76,10.0,ESE,4.6,-,N/A,,Clear,120,2013-12-20 22:35:00
4:55 PM,69.8,60.8,73,29.76,10.0,Calm,Calm,-,N/A,,Clear,0,2013-12-20 22:55:00
5:15 PM,68.0,60.8,78,29.76,10.0,Calm,Calm,-,N/A,,Clear,0,2013-12-20 23:15:00
5:35 PM,66.2,60.8,83,29.75,10.0,Calm,Calm,-,N/A,,Clear,0,2013-12-20 23:35:00
5:55 PM,66.2,60.8,83,29.74,10.0,Calm,Calm,-,N/A,,Clear,0,2013-12-20 23:55:00
6:15 PM,64.4,60.8,88,29.74,10.0,Calm,Calm,-,N/A,,Clear,0,2013-12-21 00:15:00
6:35 PM,64.4,60.8,88,29.73,10.0,Calm,Calm,-,N/A,,Mostly Cloudy,0,2013-12-21 00:35:00
6:55 PM,64.4,60.8,88,29.73,10.0,Calm,Calm,-,N/A,,Overcast,0,2013-12-21 00:55:00
7:15 PM,64.4,60.8,88,29.73,10.0,Calm,Calm,-,N/A,,Scattered Clouds,0,2013-12-21 01:15:00
7:35 PM,62.6,59.0,88,29.74,10.0,Calm,Calm,-,N/A,,Clear,0,2013-12-21 01:35:00
7:55 PM,62.6,60.8,94,29.74,10.0,Calm,Calm,-,N/A,,Clear,0,2013-12-21 01:55:00
8:15 PM,64.4,60.8,88,29.73,10.0,East,4.6,-,N/A,,Scattered Clouds,100,2013-12-21 02:15:00
8:35 PM,64.4,62.6,94,29.74,9.0,East,4.6,-,N/A,,Scattered Clouds,90,2013-12-21 02:35:00
8:55 PM,64.4,62.6,94,29.72,8.0,East,5.8,-,N/A,,Mostly Cloudy,100,2013-12-21 02:55:00
9:15 PM,64.4,62.6,94,29.72,8.0,Calm,Calm,-,N/A,,Scattered Clouds,0,2013-12-21 03:15:00
9:35 PM,66.2,64.4,94,29.72,8.0,NE,5.8,-,N/A,,Mostly Cloudy,50,2013-12-21 03:35:00
9:55 PM,66.2,64.4,94,29.67,8.0,ESE,12.7,-,N/A,,Overcast,110,2013-12-21 03:55:00
10:15 PM,66.2,64.4,94,29.69,7.0,NNE,5.8,-,N/A,,Overcast,30,2013-12-21 04:15:00
10:35 PM,55.4,50.0,82,29.74,8.0,North,13.8,20.7,N/A,,Overcast,350,2013-12-21 04:35:00
10:55 PM,50.0,46.4,87,29.73,3.0,North,13.8,23.0,N/A,Rain,Light Rain,350,2013-12-21 04:55:00
11:15 PM,48.2,44.6,87,29.77,3.0,NW,24.2,31.1,N/A,,Overcast,320,2013-12-21 05:15:00
11:35 PM,42.8,39.2,87,29.80,5.0,North,19.6,27.6,0.02,,Overcast,360,2013-12-21 05:35:00
11:55 PM,41.0,39.2,93,29.81,4.0,North,16.1,20.7,0.04,,Overcast,350,2013-12-21 05:55:00